CAPE
1499 1764 1977 2914 1735 1238 1176 1277 1194 1995 1987 1201 1443 1571 1566 1732 1655 1722 1780 1405 1094 843 700 585 528 516 525 583 746 918 1084 1158 1147 1140 1205 1350 1536 1743
1359 1857 1876 1662 1696 1404 1215 1153 1091 894 703 992 969 1543 1755 1681 1845 1885 1836 1226 1217 1116 857 586 455 424 456 478 513 524 523 564 628 667 741 751 708 767
1854 2133 2324 1910 1707 1482 1541 1474 1248 1230 1112 685 967 1252 2371 2535 1923 2069 1991 1697 1393 698 652 449 266 262 252 317 391 352 384 480 497 472 460 473 449 423
1964 2066 1892 1985 2164 2161 1822 1987 2226 1538 1209 1679 1702 1318 2308 2069 2240 2367 1956 1152 1206 905 745 573 428 234 259 198 176 0 2 243 513 550 510 304 188 109
1650 1871 1916 1775 2323 2830 2597 2249 2352 2621 2338 2004 1649 2389 1655 1734 2078 2284 2244 2072 1876 1169 883 684 487 301 163 196 82 138 68 182 207 244 258 163 245 325
1539 1658 1700 1683 1640 1799 2031 2006 2161 2503 2437 2554 2591 2740 2446 2785 2715 2750 2718 2903 2284 1706 1367 1005 690 618 421 269 233 205 135 145 141 176 203 159 139 487
367 543 668 186 311 384 663 1322 1412 1576 1587 1625 1421 1194 1026 1471 2161 2093 2077 2049 2641 1642 1759 1661 1927 1930 1815 1014 708 520 296 168 106 160 220 246 164 206
47 64 182 25 37 0 0 0 0 512 865 766 428 344 410 310 102 81 88 41 42 13 182 138 233 186 120 492 682 911 846 777 689 475 379 591 529 713
33 34 21 23 16 26 13 0 0 0 0 11 113 25 16 44 140 142 438 187 229 117 364 31 19 13 25 2 0 44 527 493 358 257 271 325 309 290
20 19 17 25 0 1 10 26 28 26 32 38 63 81 106 78 282 294 356 315 205 91 439 76 53 31 20 31 14 19 39 19 28 22 63 112 189 222
12 17 2 3 1 0 0 7 15 17 11 9 0 0 0 0 0 0 5 34 29 34 69 49 43 35 45 99 165 23 65 1 1 7 0 1 26 33
4 13 0 0 0 0 0 3 11 10 14 10 9 6 7 6 1 10 21 31 29 26 68 133 88 138 169 399 232 359 901 77 163 2 0 0 0 32
0 1 4 0 0 0 0 8 5 1 7 17 17 19 22 4 7 44 82 76 71 54 58 266 270 358 250 225 135 263 608 354 306 135 19 0 2 0
1 2 3 0 0 0 0 0 0 0 14 14 15 12 8 5 10 12 14 46 110 290 157 507 425 313 254 161 211 127 249 130 161 290 285 52 16 2
0 0 0 0 0 0 0 0 0 7 13 19 20 19 17 16 7 21 28 49 35 21 35 118 791 478 612 418 247 476 222 180 358 225 280 304 418 272
1 1 0 0 0 0 0 0 4 0 1 6 10 14 20 20 22 17 18 16 9 15 27 52 75 113 19 67 135 75 122 115 150 100 164 254 325 239
0 3 3 2 1 0 0 0 0 2 6 5 8 11 12 8 6 6 1 0 5 12 14 16 28 18 15 40 58 152 205 271 340 549 537 458 407 510
0 0 0 0 0 0 0 0 0 0 0 0 0 2 3 1 0 0 0 0 1 4 9 10 11 7 6 2 2 22 18 29 78 121 285 523 451 481
0 0 0 0 0 0 0 0 0 0 0 0 0 0 0 0 0 0 0 0 0 1 1 6 12 7 13 13 8 12 31 32 56 134 177 381 419 528
0 0 0 0 0 0 0 0 0 0 0 0 0 0 0 0 0 0 0 0 0 0 0 0 8 11 14 38 50 34 16 61 63 24 11 14 145 19
0 0 0 0 0 0 0 1 0 0 0 0 0 0 0 0 0 0 0 0 0 2 2 2 4 0 17 25 18 2 3 10 8 4 31 31 43 33
0 0 0 0 0 0 3 3 3 1 0 0 0 0 0 0 0 0 0 0 2 3 5 4 10 14 22 23 18 17 8 2 0 0 0 13 0 0
0 0 0 0 2 5 5 5 5 4 0 0 0 0 0 0 0 0 0 0 0 0 3 0 4 12 19 36 19 34 38 17 5 0 5 14 0 3
CIN
-0 -0 -0 -0 -0 -0 -0 -0 -0 -0 -4 -2 -0 -1 -0 -0 -1 -0 -9 -38 -67 -88 -92 -120 -142 -140 -87 -165 -132 -95 -63 -53 -49 -45 -42 -28 -16 -7
-0 -0 -0 -0 -0 -0 -0 -0 -0 -0 -0 -0 -4 -0 -0 -0 -8 -9 -4 -32 -63 -80 -108 -144 -169 -187 -180 -179 -161 -140 -134 -140 -125 -124 -118 -113 -117 -106
-0 -0 -0 -0 -0 -0 -0 -0 -0 -0 -0 -0 -0 -0 -0 -0 -0 -0 -1 -1 -6 -70 -51 -76 -61 -127 -127 -208 -180 -182 -164 -118 -110 -119 -130 -119 -130 -185
-0 -0 -0 -0 -0 -0 -0 -0 -0 -0 -0 -0 -0 -0 -0 -0 -0 -0 -0 -0 -0 -4 -46 -80 -106 -146 -85 -97 -105 -0 -17 -78 -103 -102 -122 -79 -121 -307
-0 -0 -0 -0 -0 -0 -0 -0 -0 -0 -0 -0 -0 -0 -0 -0 -0 -0 -0 -0 -0 -4 -14 -51 -77 -105 -126 -70 -95 -85 -82 -77 -69 -67 -80 -91 -84 -119
-0 -1 -1 -0 -0 -0 -0 -0 -0 -0 -0 -0 -0 -0 -0 -0 -0 -0 -0 -8 -2 -0 -3 -5 -8 -32 -67 -110 -121 -116 -103 -103 -120 -111 -108 -115 -74 -65
-11 -0 -2 -87 -25 -21 -9 -0 -0 -0 -0 -0 -0 -0 -0 -0 -0 -0 -0 -0 -0 -2 -0 -5 -4 -4 -1 -3 -33 -54 -111 -139 -159 -134 -116 -96 -51 -59
-127 -107 -29 -113 -109 -0 -0 -0 -0 -0 -0 -0 -0 -16 -8 -13 -0 -67 -71 -101 -111 -122 -94 -71 -17 -53 -61 -4 -4 -6 -31 -44 -68 -126 -147 -70 -68 -49
-0 -0 -0 -3 -3 -0 -3 -0 -0 -0 -0 -78 -73 -47 -0 -42 -51 -51 -18 -75 -61 -98 -30 -169 -0 -0 -165 -0 -0 -171 -23 -41 -96 -156 -99 -73 -70 -67
-0 -0 -0 -1 -0 -0 -0 -0 -0 -0 -0 -0 -95 -137 -120 -48 -58 -67 -62 -51 -88 -122 -39 -127 -122 -99 -177 -185 -6 -251 -187 -210 -244 -134 -159 -164 -120 -80
-0 -0 -0 -0 -0 -0 -0 -0 -0 -0 -1 -13 -0 -0 -0 -0 -0 -0 -0 -0 -0 -0 -13 -0 -29 -0 -23 -115 -66 -56 -162 -28 -96 -218 -0 -9 -187 -200
-0 -0 -0 -0 -0 -0 -0 -0 -0 -0 -0 -0 -0 -3 -2 -5 -3 -6 -0 -0 -0 -0 -91 -150 -144 -91 -76 -36 -59 -34 -12 -124 -78 -60 -0 -0 -0 -182
-0 -0 -0 -0 -0 -0 -0 -0 -0 -0 -0 -0 -0 -0 -4 -0 -1 -2 -2 -0 -0 -67 -75 -38 -26 -17 -46 -67 -77 -38 -24 -33 -56 -28 -3 -0 -29 -0
-0 -0 -0 -0 -0 -0 -0 -0 -0 -0 -0 -0 -0 -0 -0 -0 -0 -1 -2 -0 -103 -67 -108 -3 -2 -19 -34 -65 -72 -80 -36 -60 -46 -24 -9 -51 -5 -6
-0 -0 -0 -0 -0 -0 -0 -0 -0 -0 -0 -0 -0 -0 -0 -0 -5 -0 -0 -0 -0 -0 -0 -125 -0 -0 -0 -3 -30 -6 -49 -43 -4 -9 -4 -4 -6 -10
-0 -0 -0 -0 -0 -0 -0 -0 -0 -0 -0 -0 -0 -0 -0 -0 -0 -0 -0 -0 -0 -0 -0 -0 -0 -42 -0 -100 -79 -98 -60 -83 -45 -50 -5 -1 -0 -5
-0 -0 -0 -0 -0 -0 -0 -0 -0 -0 -0 -0 -0 -0 -0 -0 -0 -0 -0 -0 -0 -0 -0 -0 -0 -0 -0 -0 -37 -77 -62 -56 -39 -13 -6 -11 -4 -3
-0 -0 -0 -0 -0 -0 -0 -0 -0 -0 -0 -0 -0 -0 -0 -0 -0 -0 -0 -0 -0 -0 -0 -0 -0 -0 -0 -0 -0 -0 -0 -0 -198 -165 -72 -33 -38 -8
-0 -0 -0 -0 -0 -0 -0 -0 -0 -0 -0 -0 -0 -0 -0 -0 -0 -0 -0 -0 -0 -0 -0 -0 -0 -1 -0 -0 -0 -1 -0 -0 -0 -189 -135 -50 -47 -9
-0 -0 -0 -0 -0 -0 -0 -0 -0 -0 -0 -0 -0 -0 -0 -0 -0 -0 -0 -0 -0 -0 -0 -0 -0 -0 -0 -0 -0 -0 -2 -5 -1 -0 -0 -0 -91 -240
-0 -0 -0 -0 -0 -0 -0 -0 -0 -0 -0 -0 -0 -0 -0 -0 -0 -0 -0 -0 -0 -0 -0 -0 -0 -0 -0 -0 -0 -0 -0 -8 -2 -0 -0 -0 -0 -123
-0 -0 -0 -0 -0 -0 -0 -0 -0 -0 -0 -0 -0 -0 -0 -0 -0 -0 -0 -0 -0 -0 -0 -0 -0 -0 -0 -0 -0 -0 -0 -0 -0 -2 -0 -0 -0 -0
-0 -0 -0 -0 -0 -0 -0 -0 -0 -0 -0 -0 -0 -0 -0 -0 -0 -0 -0 -0 -0 -0 -0 -0 -0 -0 -0 -0 -2 -0 -0 -0 -0 -0 -0 -44 -0 -0
Wind_Speed
3 3 2 2 3 4 3 4 3 4 3 3 1 6 6 6 6 8 4 6 14 13 11 12 8 7 7 7 6 6 5 5 5 3 2 1 1 0
0 1 0 3 3 2 4 6 5 4 3 10 4 7 7 3 8 4 0 9 16 14 13 14 9 5 6 7 7 6 6 6 6 6 6 5 4 4
3 2 1 3 1 3 4 3 4 6 5 4 9 7 6 4 2 4 4 6 8 17 15 14 11 8 9 8 9 9 7 6 7 7 6 6 6 6
0 2 3 4 5 2 3 5 3 5 7 6 3 7 14 9 7 6 6 5 5 15 19 15 14 14 14 17 21 nan nan 9 8 9 9 8 7 8
7 3 1 3 3 4 5 6 6 7 10 10 8 10 8 8 10 11 11 10 11 13 23 21 19 20 18 19 nan 6 nan 10 9 10 12 12 12 12
10 10 7 9 9 9 10 11 12 12 13 15 15 16 17 15 16 16 13 16 15 14 14 14 19 21 21 19 15 11 12 12 13 17 16 17 17 16
16 17 24 23 25 25 20 24 21 21 22 22 22 22 23 25 25 26 23 22 21 22 20 18 20 21 21 21 16 20 18 18 19 20 19 18 19 20
nan nan 16 nan nan nan nan nan nan 21 21 21 21 21 23 24 27 nan nan nan nan nan 28 24 26 22 20 21 27 28 27 23 22 22 20 19 18 15
nan nan nan nan nan nan nan nan nan nan nan nan 24 nan nan nan 28 28 29 29 29 32 33 nan nan nan nan nan nan nan 29 27 26 25 23 22 21 20
nan nan nan nan nan nan nan nan nan nan nan nan nan nan 32 nan 33 31 31 30 29 nan 34 nan nan nan nan nan nan nan nan nan nan nan nan 28 27 25
nan nan nan nan nan nan nan nan nan nan nan nan nan nan nan nan nan nan nan nan nan nan nan nan nan nan nan nan 36 nan nan nan nan nan nan nan nan nan
nan nan nan nan nan nan nan nan nan nan nan nan nan nan nan nan nan nan nan nan nan nan nan 43 nan 40 40 40 38 46 46 nan 47 nan nan nan nan nan
nan nan nan nan nan nan nan nan nan nan nan nan nan nan nan nan nan nan nan nan nan nan nan 40 37 36 37 37 35 41 47 46 46 43 nan nan nan nan
nan nan nan nan nan nan nan nan nan nan nan nan nan nan nan nan nan nan nan nan 38 33 33 32 35 33 32 31 34 36 38 38 40 42 43 nan nan nan
nan nan nan nan nan nan nan nan nan nan nan nan nan nan nan nan nan nan nan nan nan nan nan 34 36 33 34 33 31 33 33 36 40 39 44 46 48 46
nan nan nan nan nan nan nan nan nan nan nan nan nan nan nan nan nan nan nan nan nan nan nan nan nan 39 nan nan 38 nan 35 33 35 36 38 40 40 41
nan nan nan nan nan nan nan nan nan nan nan nan nan nan nan nan nan nan nan nan nan nan nan nan nan nan nan nan nan 36 35 35 34 36 34 32 33 34
nan nan nan nan nan nan nan nan nan nan nan nan nan nan nan nan nan nan nan nan nan nan nan nan nan nan nan nan nan nan nan nan nan 37 38 37 37 38
nan nan nan nan nan nan nan nan nan nan nan nan nan nan nan nan nan nan nan nan nan nan nan nan nan nan nan nan nan nan nan nan nan 37 37 37 38 35
nan nan nan nan nan nan nan nan nan nan nan nan nan nan nan nan nan nan nan nan nan nan nan nan nan nan nan nan nan nan nan nan nan nan nan nan 33 nan
nan nan nan nan nan nan nan nan nan nan nan nan nan nan nan nan nan nan nan nan nan nan nan nan nan nan nan nan nan nan nan nan nan nan nan nan nan nan
nan nan nan nan nan nan nan nan nan nan nan nan nan nan nan nan nan nan nan nan nan nan nan nan nan nan nan nan nan nan nan nan nan nan nan nan nan nan
nan nan nan nan nan nan nan nan nan nan nan nan nan nan nan nan nan nan nan nan nan nan nan nan nan nan nan nan nan nan nan nan nan nan nan nan nan nan
Wind_Direction
92 61 6 323 71 2 52 103 126 7 306 316 346 314 299 314 320 16 14 318 347 352 350 338 335 338 336 341 350 350 357 359 359 2 5 18 15 351
21 7 133 303 83 13 27 28 33 84 108 318 322 295 277 264 311 332 119 279 324 336 351 3 350 302 318 315 303 304 311 321 333 339 346 343 333 319
119 265 352 129 59 322 341 2 15 357 17 349 326 317 317 338 295 313 315 314 320 347 346 343 340 336 322 307 293 283 287 297 306 308 311 317 309 312
274 107 19 309 359 2 337 339 314 335 330 342 302 307 322 327 329 321 323 334 339 321 340 336 333 331 320 309 301 nan nan 275 291 296 289 301 294 276
191 218 266 293 308 266 289 289 296 295 296 303 303 284 274 285 288 309 311 316 310 315 324 335 339 341 342 341 nan 294 nan 262 277 296 297 286 278 275
261 270 271 270 278 278 278 278 275 276 278 279 279 279 279 275 281 277 277 275 266 257 263 288 307 329 340 342 342 317 295 300 311 317 314 313 285 273
250 254 270 262 269 267 273 279 281 286 286 285 286 287 288 285 287 289 291 289 289 297 291 285 283 295 305 324 320 332 321 318 309 308 304 304 301 281
nan nan 256 nan nan nan nan nan nan 270 271 267 270 274 271 279 279 nan nan nan nan nan 282 283 277 267 267 270 267 272 299 304 303 304 307 309 303 300
nan nan nan nan nan nan nan nan nan nan nan nan 275 nan nan nan 269 274 277 273 278 277 279 nan nan nan nan nan nan nan 278 279 283 287 289 291 290 290
nan nan nan nan nan nan nan nan nan nan nan nan nan nan 275 nan 272 274 272 277 283 nan 288 nan nan nan nan nan nan nan nan nan nan nan nan 287 288 287
nan nan nan nan nan nan nan nan nan nan nan nan nan nan nan nan nan nan nan nan nan nan nan nan nan nan nan nan 269 nan nan nan nan nan nan nan nan nan
nan nan nan nan nan nan nan nan nan nan nan nan nan nan nan nan nan nan nan nan nan nan nan 276 nan 273 275 280 278 265 271 nan 289 nan nan nan nan nan
nan nan nan nan nan nan nan nan nan nan nan nan nan nan nan nan nan nan nan nan nan nan nan 267 269 267 270 272 266 263 268 265 266 264 nan nan nan nan
nan nan nan nan nan nan nan nan nan nan nan nan nan nan nan nan nan nan nan nan 275 274 269 269 272 270 269 268 268 265 267 266 267 267 271 nan nan nan
nan nan nan nan nan nan nan nan nan nan nan nan nan nan nan nan nan nan nan nan nan nan nan 269 272 270 274 277 274 272 268 267 267 266 265 264 268 266
nan nan nan nan nan nan nan nan nan nan nan nan nan nan nan nan nan nan nan nan nan nan nan nan nan 271 nan nan 271 nan 270 271 271 270 270 267 267 268
nan nan nan nan nan nan nan nan nan nan nan nan nan nan nan nan nan nan nan nan nan nan nan nan nan nan nan nan nan 268 268 267 263 261 257 261 265 264
nan nan nan nan nan nan nan nan nan nan nan nan nan nan nan nan nan nan nan nan nan nan nan nan nan nan nan nan nan nan nan nan nan 257 255 257 259 258
nan nan nan nan nan nan nan nan nan nan nan nan nan nan nan nan nan nan nan nan nan nan nan nan nan nan nan nan nan nan nan nan nan 264 260 260 259 256
nan nan nan nan nan nan nan nan nan nan nan nan nan nan nan nan nan nan nan nan nan nan nan nan nan nan nan nan nan nan nan nan nan nan nan nan 254 nan
nan nan nan nan nan nan nan nan nan nan nan nan nan nan nan nan nan nan nan nan nan nan nan nan nan nan nan nan nan nan nan nan nan nan nan nan nan nan
nan nan nan nan nan nan nan nan nan nan nan nan nan nan nan nan nan nan nan nan nan nan nan nan nan nan nan nan nan nan nan nan nan nan nan nan nan nan
nan nan nan nan nan nan nan nan nan nan nan nan nan nan nan nan nan nan nan nan nan nan nan nan nan nan nan nan nan nan nan nan nan nan nan nan nan nan